[[{"header":{"parameterUnit":"m.s-1","parameterCategory":2,"la1":30.2991,"la2":30.254,"lo1":-89.0895,"lo2":-89.0444,"dy":0.0017,"dx":0.0017,"nx":28,"ny":28,"refTime":"2024-04-14T09:00:00:Z","depth":"0","parameterNumber":2,"parameterNumberName":"U-component_of_CURRENTS"},"data":[0,0,0,0,0,0,0,0,0,0,0,0,0,0,0,0,0,0,0,0,0,0,0,0,0,0,0,0,0,0,0,0,0,0,0,0,0,0,0,0,0,0,0,0,0,0,0,0,0,0,0,0,0,0,0,0,0,0,-0.2979,-0.2984,0,-0.3324,-0.3327,-0.333,-0.3415,-0.3414,-0.3413,-0.3412,-0.3316,-0.3315,-0.3313,0,0,0,0,0,0,0,0,0,0,0,0,0,-0.2626,-0.263,-0.2979,-0.2984,-0.299,-0.3323,-0.3327,-0.3331,-0.3415,-0.3414,-0.3413,-0.3411,-0.3317,-0.3315,-0.3313,0,0,0,0,0,0,0,0,0,0,0,0,0,-0.2844,-0.2631,-0.2978,-0.3081,-0.3095,-0.3323,-0.3327,-0.3331,-0.3416,-0.3414,-0.3412,-0.3411,-0.3317,-0.3315,-0.3313,-0.3333,0,0,-0.3306,-0.3305,0,0,0,0,0,0,0,0,-0.2831,-0.2855,-0.306,-0.3074,-0.309,-0.3335,-0.3169,-0.3314,-0.3416,-0.3281,-0.3412,-0.341,-0.3291,-0.3291,-0.3349,-0.3328,-0.3324,-0.3306,-0.3305,-0.3304,-0.3303,0,0,0,0,0,0,0,-0.2815,-0.2842,-0.3103,-0.3067,-0.3085,-0.3191,-0.3216,-0.3199,-0.3273,-0.3293,-0.3303,-0.3361,-0.3294,-0.3351,-0.3346,-0.3323,-0.3306,-0.3304,-0.3303,-0.3302,-0.338,-0.3383,0,0,0,0,0,0,-0.2788,-0.2827,-0.3092,-0.3115,-0.2968,-0.3199,-0.3227,-0.3248,-0.3284,-0.3295,-0.3362,-0.3364,-0.3356,-0.3348,-0.3342,-0.3373,-0.3304,-0.3301,-0.33,-0.3376,-0.338,-0.3384,0,0,0,0,0,0,-0.2778,-0.2806,-0.3079,-0.299,-0.3034,-0.3206,-0.323,-0.3256,-0.3317,-0.3344,-0.3343,-0.3397,-0.3354,-0.3345,-0.3351,-0.3368,-0.33,-0.3298,-0.3372,-0.3378,-0.3382,-0.3427,0,0,0,0,0,0,-0.2765,-0.28,-0.2792,-0.2987,-0.3038,-0.3204,-0.3234,-0.3265,-0.3362,-0.3367,-0.3373,-0.3364,-0.3352,-0.3355,-0.3349,-0.3363,-0.3297,-0.3368,-0.3375,-0.3381,-0.3421,-0.3433,-0.3443,0,0,0,0,0,-0.2751,-0.2762,-0.2788,-0.2822,-0.3025,-0.3207,-0.3241,-0.3351,-0.3365,-0.3396,-0.3415,-0.3364,-0.3392,-0.3356,-0.3348,-0.3362,-0.3365,-0.3373,-0.338,-0.3416,-0.3431,-0.3443,0,0,0,0,0,0,-0.2629,-0.2779,-0.2811,-0.287,-0.3019,-0.3225,-0.3271,-0.3355,-0.3408,-0.3388,-0.3394,-0.3388,-0.342,-0.3391,-0.3352,-0.3415,-0.3375,-0.3381,-0.3405,-0.3418,-0.3429,-0.3365,-0.3295,0,0,0,0,0,-0.2593,-0.2619,-0.2807,-0.2855,-0.2916,-0.3088,-0.3171,-0.3256,-0.3351,-0.3377,-0.3404,-0.342,-0.3453,-0.343,-0.3461,-0.3459,-0.3386,-0.3474,-0.3485,-0.3494,-0.3445,-0.3355,-0.335,-0.3409,-0.3409,-0.3409,0,0,-0.2572,-0.2653,-0.2675,-0.2829,-0.2938,-0.3062,-0.3129,-0.3256,-0.3343,-0.3345,-0.3426,-0.3463,-0.3474,-0.3513,-0.3519,-0.3473,-0.3457,-0.3503,-0.351,-0.3455,-0.3362,-0.3355,-0.3348,-0.3415,-0.3414,-0.3413,0,0,-0.2588,-0.2598,-0.2652,-0.276,-0.2929,-0.303,-0.3064,-0.3264,-0.3314,-0.3411,-0.3455,-0.3488,-0.3537,-0.3556,-0.3564,-0.3642,-0.3544,-0.3674,-0.363,-0.3546,-0.3537,-0.3529,-0.3479,-0.3465,-0.3644,-0.3645,-0.3645,0,-0.2559,-0.2648,-0.2705,-0.2807,-0.2889,-0.3011,-0.3116,-0.3206,-0.3387,-0.3391,-0.3423,-0.3521,-0.355,-0.3564,-0.363,-0.3655,-0.3599,-0.3571,-0.355,-0.354,-0.3529,-0.348,-0.3464,-0.3648,-0.3647,-0.3647,-0.3647,0,-0.2642,-0.2719,-0.2761,-0.2896,-0.2974,-0.3083,-0.321,-0.3266,-0.3327,-0.3409,-0.345,-0.3516,-0.354,-0.3602,-0.3642,-0.3618,-0.3604,-0.3595,-0.3492,-0.3524,-0.3474,-0.3456,-0.3652,-0.3651,-0.365,-0.3649,0,0,-0.2576,-0.2781,-0.2795,-0.2854,-0.3019,-0.3087,-0.3169,-0.3265,-0.3274,-0.3388,-0.3393,-0.3505,-0.3506,-0.352,-0.3575,-0.3528,-0.348,-0.3532,-0.3526,-0.344,-0.3301,-0.324,-0.3215,-0.3449,-0.3445,-0.3442,-0.331,0,-0.2638,-0.2814,-0.2887,-0.3016,-0.3109,-0.3167,-0.3225,-0.3287,-0.333,-0.3356,-0.337,-0.3414,-0.3483,-0.3498,-0.3462,-0.3499,-0.3426,-0.3516,-0.3318,-0.3312,-0.3216,-0.3189,-0.3066,-0.2931,-0.3292,-0.3289,-0.3287,0,-0.2693,-0.2801,-0.2952,-0.3048,-0.3077,-0.3143,-0.3146,-0.3218,-0.3244,-0.3264,-0.3254,-0.3291,-0.3293,-0.3335,-0.3274,-0.3325,-0.3298,-0.3298,-0.3292,-0.3182,-0.3214,-0.2953,-0.2884,-0.2859,-0.3259,-0.3261,-0.3263,0,-0.2614,-0.2809,-0.2903,-0.2959,-0.3109,-0.3107,-0.3141,-0.3173,-0.3177,-0.3187,-0.3178,-0.3166,-0.317,-0.3115,-0.3161,-0.3194,-0.307,-0.3103,-0.2998,-0.2996,-0.282,-0.2807,-0.2648,-0.2973,-0.2973,-0.2974,-0.2974,0,-0.2642,-0.2701,-0.2868,-0.293,-0.2935,-0.3039,-0.3016,-0.3042,-0.3071,-0.3053,-0.3108,-0.3092,-0.3108,-0.3073,-0.3083,-0.2986,-0.2981,-0.295,-0.2929,-0.2846,-0.2837,-0.2751,-0.2808,-0.2969,-0.297,-0.2971,-0.2972,0,-0.2548,-0.2699,-0.278,-0.2913,-0.2922,-0.2902,-0.293,-0.2918,-0.2971,-0.2948,-0.2947,-0.3002,-0.2963,-0.2966,-0.2906,-0.2877,-0.2752,-0.2764,-0.2693,-0.2663,-0.2532,-0.2599,-0.2412,-0.2343,-0.2591,-0.2589,-0.2586,0,-0.2524,-0.2582,-0.2698,-0.2706,-0.2761,-0.2762,-0.276,-0.2835,-0.2839,-0.2894,-0.2874,-0.2863,-0.2827,-0.2728,-0.2678,-0.2587,-0.2625,-0.2422,-0.2448,-0.2458,-0.2518,-0.2584,-0.2545,-0.2265,-0.226,-0.2256,-0.2253,0,-0.2425,-0.2466,-0.2522,-0.2553,-0.2562,-0.2558,-0.258,-0.2575,-0.2668,-0.2674,-0.2678,-0.2656,-0.2604,-0.2473,-0.2387,-0.2335,-0.2363,-0.2337,-0.233,-0.2209,-0.228,-0.2227,-0.2471,-0.2218,-0.2222,-0.2224,-0.2226,-0.2227,-0.2284,-0.2272,-0.2343,-0.2334,-0.2352,-0.2337,-0.2275,-0.2342,-0.2322,-0.2316,-0.243,-0.2369,-0.2331,-0.2191,-0.2125,-0.1986,-0.2102,-0.193,-0.2002,-0.2062,-0.1998,-0.2185,-0.1928,-0.193,-0.1931,-0.1933,-0.1934,0,-0.2105,-0.2112,-0.2109,-0.2113,-0.2062,-0.2132,-0.2128,-0.2063,-0.2003,-0.2078,-0.2061,-0.204,-0.1906,-0.1887,-0.1785,-0.1689,-0.166,-0.1658,-0.1709,-0.1677,-0.1787,-0.1774,-0.149,-0.1491,-0.1491,-0.1491,-0.1491,-0.1491,-0.2014,-0.195,-0.1957,-0.1817,-0.1811,-0.1688,-0.1651,-0.1606,-0.1622,-0.1579,-0.161,-0.1671,-0.1706,-0.1835,-0.1688,-0.1585,-0.1566,-0.1512,-0.1566,-0.166,-0.1692,-0.1722,-0.1717,-0.1427,-0.1427,-0.1362,-0.1362,-0.1361]},{"header":{"parameterUnit":"m.s-1","parameterCategory":2,"la1":30.2991,"la2":30.254,"lo1":-89.0895,"lo2":-89.0444,"dy":0.0017,"dx":0.0017,"nx":28,"ny":28,"refTime":"2024-04-14T09:00:00:Z","depth":"0","parameterNumber":3,"parameterNumberName":"V-component_of_CURRENTS"},"data":[0,0,0,0,0,0,0,0,0,0,0,0,0,0,0,0,0,0,0,0,0,0,0,0,0,0,0,0,0,0,0,0,0,0,0,0,0,0,0,0,0,0,0,0,0,0,0,0,0,0,0,0,0,0,0,0,0,0,-0.0086,-0.0085,0,0.0021,0.0022,0.0023,0.0077,0.0077,0.0078,0.0078,0.0171,0.0174,0.0176,0,0,0,0,0,0,0,0,0,0,0,0,0,-0.0164,-0.0164,-0.0087,-0.0085,-0.0083,0.002,0.0022,0.0023,0.0077,0.0077,0.0078,0.0078,0.0171,0.0173,0.0176,0,0,0,0,0,0,0,0,0,0,0,0,0,-0.0104,-0.0164,-0.0087,-0.0042,-0.0037,0.002,0.0022,0.0023,0.0077,0.0077,0.0078,0.0078,0.017,0.0173,0.0176,0.0188,0,0,0.0187,0.0188,0,0,0,0,0,0,0,0,-0.0107,-0.0101,-0.005,-0.0045,-0.0039,0.0038,0.0029,0.0079,0.0077,0.0031,0.0078,0.0078,0.0127,0.0134,0.015,0.0193,0.0197,0.0187,0.0189,0.019,0.0191,0,0,0,0,0,0,0,-0.0112,-0.0105,-0.0047,-0.0048,-0.0042,0.0001,0.0009,0.0039,0.0073,0.0035,0.004,0.0056,0.013,0.0146,0.0152,0.0198,0.0187,0.019,0.0192,0.0193,0.0287,0.0288,0,0,0,0,0,0,-0.0124,-0.011,-0.005,-0.0043,-0.007,0.0001,0.001,0.0011,0.0073,0.0084,0.0055,0.0058,0.014,0.0148,0.0156,0.0166,0.019,0.0193,0.0195,0.0287,0.0287,0.0288,0,0,0,0,0,0,-0.0127,-0.0121,-0.0054,-0.0071,-0.0059,0.0002,0.0003,0.0013,0.0029,0.0089,0.0099,0.0061,0.0141,0.0151,0.0186,0.017,0.0195,0.0198,0.0286,0.0287,0.0288,0.0191,0,0,0,0,0,0,-0.013,-0.0123,-0.0132,-0.0073,-0.0059,-0.0039,0.0003,0.0015,0.004,0.0044,0.0098,0.0107,0.0142,0.0181,0.0189,0.0175,0.0201,0.0286,0.0287,0.0287,0.0194,0.0189,0.0184,0,0,0,0,0,-0.0133,-0.0155,-0.0133,-0.0126,-0.0072,-0.004,-0.003,0.0015,0.0039,0.0033,0.0084,0.0105,0.0193,0.0184,0.0194,0.018,0.0285,0.0286,0.0287,0.0196,0.019,0.0184,0,0,0,0,0,0,-0.019,-0.0149,-0.0125,-0.0131,-0.0093,-0.003,-0.003,0.0009,0.0045,0.0047,0.0109,0.0121,0.0149,0.0184,0.0172,0.0215,0.0244,0.0247,0.0171,0.0166,0.0161,0.0128,0.0203,0,0,0,0,0,-0.0207,-0.0214,-0.0159,-0.0163,-0.0152,-0.009,-0.0071,-0.0041,0.0005,0.0021,0.0067,0.0118,0.0162,0.0177,0.0221,0.0236,0.0273,0.0238,0.0233,0.0229,0.0212,0.0261,0.0258,0.0292,0.0292,0.0292,0,0,-0.0225,-0.0205,-0.0206,-0.0175,-0.0144,-0.0144,-0.008,-0.0064,-0.0055,0.0025,0.0044,0.0102,0.0167,0.019,0.0205,0.0213,0.0242,0.023,0.0225,0.0211,0.0262,0.0258,0.0255,0.0292,0.0292,0.0292,0,0,-0.0283,-0.0254,-0.0287,-0.0267,-0.0231,-0.0188,-0.0187,-0.013,-0.0101,-0.0069,-0.0002,0.0045,0.0105,0.0149,0.0179,0.0174,0.022,0.0194,0.0131,0.0178,0.0175,0.0173,0.0219,0.0222,0.0183,0.0183,0.0183,0,-0.0308,-0.034,-0.0289,-0.0316,-0.0304,-0.0216,-0.0243,-0.0199,-0.0133,-0.0109,-0.008,0.003,0.0083,0.0121,0.0123,0.0158,0.0196,0.0141,0.0168,0.0167,0.0166,0.0214,0.0218,0.0179,0.0179,0.018,0.018,0,-0.0388,-0.0414,-0.0431,-0.0433,-0.0413,-0.042,-0.0352,-0.032,-0.0263,-0.0213,-0.0156,-0.0072,-0.001,0.0021,0.0068,0.0093,0.0126,0.0159,0.0172,0.0156,0.0209,0.0215,0.0172,0.0174,0.0175,0.0176,0,0,-0.0437,-0.0483,-0.0487,-0.0512,-0.0477,-0.0464,-0.0446,-0.04,-0.0377,-0.0307,-0.028,-0.0193,-0.0135,-0.0095,-0.0021,0.002,0.0054,0.0076,0.008,0.0101,0.0159,0.0228,0.0242,0.009,0.0091,0.0091,0.0198,0,-0.0514,-0.061,-0.0591,-0.0644,-0.0683,-0.0599,-0.0582,-0.0523,-0.0452,-0.04,-0.0304,-0.0248,-0.0181,-0.0145,-0.0097,0.0028,0.0064,0.0022,0.0189,0.0193,0.024,0.0249,0.031,0.0415,0.0204,0.0205,0.0206,0,-0.0598,-0.065,-0.0746,-0.0759,-0.076,-0.0762,-0.0702,-0.0676,-0.0577,-0.0522,-0.0454,-0.0364,-0.0281,-0.0222,-0.0059,-0.0088,0.0015,0.0105,0.0112,0.021,0.0274,0.04,0.0434,0.0644,0.0215,0.0215,0.0214,0,-0.0677,-0.0742,-0.0824,-0.0834,-0.0837,-0.0836,-0.0805,-0.0722,-0.069,-0.0599,-0.0564,-0.0451,-0.0384,-0.025,-0.0058,-0.0058,0.0126,0.0153,0.0307,0.0313,0.0414,0.0429,0.0653,0.0247,0.0247,0.0247,0.0246,0,-0.0774,-0.0828,-0.0869,-0.0917,-0.0957,-0.0921,-0.0924,-0.0866,-0.0795,-0.0765,-0.0639,-0.0583,-0.0388,-0.0247,-0.0086,0.0136,0.0106,0.0295,0.0346,0.0386,0.0396,0.0624,0.0699,0.0251,0.025,0.0249,0.0248,0,-0.086,-0.09,-0.0986,-0.1015,-0.1014,-0.104,-0.1003,-0.0994,-0.0915,-0.0872,-0.0847,-0.0679,-0.0482,-0.0272,-0.0034,0.0108,0.0448,0.039,0.0424,0.0477,0.0812,0.0877,0.1115,0.1249,0.0572,0.0574,0.0576,0,-0.0917,-0.0987,-0.1059,-0.1096,-0.1114,-0.1133,-0.1134,-0.1065,-0.1046,-0.0921,-0.0903,-0.0712,-0.055,-0.0171,0.0123,0.0421,0.0568,0.0632,0.0641,0.0844,0.0954,0.099,0.1088,0.0742,0.0745,0.0748,0.075,0,-0.101,-0.1042,-0.1109,-0.1192,-0.1225,-0.1249,-0.1243,-0.1244,-0.1153,-0.1085,-0.0951,-0.0813,-0.0429,-0.0046,0.0339,0.0518,0.0806,0.0695,0.0904,0.1104,0.1158,0.1307,0.0654,0.0773,0.0771,0.0769,0.0768,0.0767,-0.105,-0.112,-0.1205,-0.127,-0.1311,-0.1341,-0.1343,-0.1306,-0.1255,-0.1105,-0.0987,-0.0694,-0.0167,0.0406,0.0615,0.109,0.1025,0.1229,0.129,0.1306,0.1447,0.0842,0.1017,0.1017,0.1016,0.1015,0.1015,0,-0.1095,-0.1175,-0.1258,-0.134,-0.1385,-0.1383,-0.1386,-0.1344,-0.1264,-0.1067,-0.0884,-0.0242,0.0283,0.0781,0.1406,0.1668,0.1728,0.1793,0.187,0.1943,0.1421,0.1442,0.172,0.1719,0.1719,0.1719,0.1719,0.1718,-0.1125,-0.1227,-0.128,-0.137,-0.1413,-0.143,-0.1422,-0.1328,-0.1166,-0.0775,-0.0378,-0.0048,0.0655,0.1582,0.2161,0.2211,0.2454,0.2417,0.2546,0.2198,0.215,0.2104,0.2147,0.2567,0.2568,0.3068,0.3073,0.3076]}],[{"header":{"parameterUnit":"m.s-1","parameterCategory":2,"la1":30.2991,"la2":30.254,"lo1":-89.0895,"lo2":-89.0444,"dy":0.0017,"dx":0.0017,"nx":28,"ny":28,"refTime":"2024-04-14T09:00:00:Z","depth":"2","parameterNumber":2,"parameterNumberName":"U-component_of_CURRENTS"},"data":[0,0,0,0,0,0,0,0,0,0,0,0,0,0,0,0,0,0,0,0,0,0,0,0,0,0,0,0,0,0,0,0,0,0,0,0,0,0,0,0,0,0,0,0,0,0,0,0,0,0,0,0,0,0,0,0,0,0,-0.2337,-0.2338,0,-0.2323,-0.2322,-0.2321,-0.2258,-0.2257,-0.2256,-0.2255,-0.2261,-0.2262,-0.2263,0,0,0,0,0,0,0,0,0,0,0,0,0,-0.2252,-0.2254,-0.2337,-0.2338,-0.2338,-0.2323,-0.2322,-0.2321,-0.2258,-0.2257,-0.2256,-0.2255,-0.226,-0.2261,-0.2263,0,0,0,0,0,0,0,0,0,0,0,0,0,-0.2263,-0.2254,-0.2337,-0.2309,-0.2307,-0.2323,-0.2322,-0.2321,-0.2258,-0.2257,-0.2256,-0.2254,-0.226,-0.2261,-0.2263,-0.23,0,0,-0.2267,-0.2268,0,0,0,0,0,0,0,0,-0.2262,-0.2265,-0.2313,-0.2311,-0.2309,-0.2296,-0.2294,-0.2317,-0.2259,-0.2271,-0.2255,-0.2254,-0.2279,-0.2279,-0.2271,-0.23,-0.2301,-0.2268,-0.2269,-0.2269,-0.227,0,0,0,0,0,0,0,-0.2262,-0.2265,-0.2325,-0.2314,-0.2311,-0.2277,-0.2277,-0.2297,-0.2279,-0.2269,-0.2266,-0.2275,-0.2277,-0.2269,-0.2271,-0.2301,-0.2268,-0.2269,-0.227,-0.227,-0.239,-0.2392,0,0,0,0,0,0,-0.2281,-0.2265,-0.2326,-0.2326,-0.2288,-0.2281,-0.228,-0.2297,-0.2278,-0.2275,-0.2276,-0.2272,-0.2267,-0.2269,-0.2271,-0.2336,-0.2269,-0.2271,-0.2271,-0.2388,-0.239,-0.2393,0,0,0,0,0,0,-0.2279,-0.2287,-0.2327,-0.2299,-0.2302,-0.2285,-0.2303,-0.2297,-0.2293,-0.2284,-0.228,-0.2278,-0.2266,-0.2268,-0.2296,-0.2335,-0.2271,-0.2273,-0.2385,-0.2388,-0.2391,-0.2453,0,0,0,0,0,0,-0.2277,-0.2286,-0.2293,-0.2301,-0.2305,-0.2349,-0.2305,-0.2298,-0.2303,-0.2297,-0.2285,-0.2283,-0.2265,-0.2294,-0.2298,-0.2336,-0.2274,-0.2382,-0.2386,-0.239,-0.2448,-0.2458,-0.2467,0,0,0,0,0,-0.2274,-0.229,-0.2294,-0.23,-0.2319,-0.2351,-0.235,-0.2327,-0.2305,-0.2315,-0.2304,-0.2284,-0.2324,-0.2297,-0.2301,-0.234,-0.238,-0.2385,-0.239,-0.2444,-0.2456,-0.2467,0,0,0,0,0,0,-0.2244,-0.2286,-0.229,-0.2314,-0.2341,-0.2343,-0.2343,-0.234,-0.2337,-0.2327,-0.2309,-0.2309,-0.235,-0.2343,-0.2314,-0.239,-0.2351,-0.2357,-0.2391,-0.2403,-0.2412,-0.2414,-0.2275,0,0,0,0,0,-0.225,-0.2274,-0.2312,-0.2329,-0.2347,-0.235,-0.2356,-0.2353,-0.2358,-0.2354,-0.2352,-0.2356,-0.2376,-0.2385,-0.2399,-0.2441,-0.2413,-0.2472,-0.2481,-0.2489,-0.2496,-0.2487,-0.2495,-0.2409,-0.2409,-0.2409,0,0,-0.2241,-0.2267,-0.2279,-0.2326,-0.2336,-0.2378,-0.2348,-0.237,-0.2402,-0.236,-0.2392,-0.2391,-0.2396,-0.2437,-0.2456,-0.2433,-0.2498,-0.2495,-0.2502,-0.2504,-0.2493,-0.2501,-0.2508,-0.2413,-0.2412,-0.2412,0,0,-0.2246,-0.2267,-0.2295,-0.2332,-0.2372,-0.2388,-0.2405,-0.243,-0.2434,-0.2476,-0.2455,-0.2476,-0.2505,-0.2514,-0.2522,-0.2598,-0.255,-0.2609,-0.2654,-0.2646,-0.2652,-0.2657,-0.2621,-0.2622,-0.261,-0.261,-0.261,0,-0.2232,-0.2279,-0.2306,-0.2353,-0.2382,-0.2403,-0.2447,-0.2472,-0.2501,-0.2511,-0.2497,-0.2538,-0.2544,-0.259,-0.2616,-0.2619,-0.2591,-0.2606,-0.2655,-0.2659,-0.2663,-0.2625,-0.2626,-0.2614,-0.2613,-0.2613,-0.2612,0,-0.2267,-0.2311,-0.2332,-0.2405,-0.2443,-0.2482,-0.2537,-0.2569,-0.258,-0.2595,-0.2639,-0.2644,-0.2658,-0.2679,-0.2672,-0.2718,-0.268,-0.2666,-0.2618,-0.2675,-0.2632,-0.2631,-0.2619,-0.2617,-0.2616,-0.2615,0,0,-0.2221,-0.2335,-0.2343,-0.2384,-0.2473,-0.2505,-0.2578,-0.2637,-0.2661,-0.2699,-0.2721,-0.2776,-0.2758,-0.2769,-0.2765,-0.2772,-0.278,-0.2736,-0.2734,-0.2686,-0.2736,-0.2639,-0.2628,-0.2765,-0.2766,-0.2767,-0.2689,0,-0.2238,-0.2327,-0.2384,-0.2467,-0.2518,-0.2575,-0.2635,-0.2691,-0.2721,-0.2751,-0.2772,-0.2792,-0.28,-0.2795,-0.2813,-0.2787,-0.2784,-0.2801,-0.2701,-0.2698,-0.2593,-0.2627,-0.2435,-0.2343,-0.2688,-0.2688,-0.2687,0,-0.2252,-0.2313,-0.2395,-0.2498,-0.2522,-0.2576,-0.2652,-0.2708,-0.2768,-0.2785,-0.2815,-0.2817,-0.285,-0.2834,-0.2829,-0.2833,-0.2797,-0.2775,-0.277,-0.2658,-0.26,-0.2347,-0.2328,-0.2686,-0.2686,-0.2686,-0.2686,0,-0.2199,-0.2318,-0.2376,-0.2417,-0.2538,-0.2574,-0.263,-0.2705,-0.2734,-0.2791,-0.2795,-0.2838,-0.2829,-0.2825,-0.2797,-0.2804,-0.2761,-0.2756,-0.2634,-0.2625,-0.2432,-0.2405,-0.2743,-0.2743,-0.2743,-0.2744,-0.2744,0,-0.2195,-0.2241,-0.2354,-0.2389,-0.2437,-0.2539,-0.2581,-0.2642,-0.2708,-0.2729,-0.2792,-0.2799,-0.2825,-0.2807,-0.2791,-0.2703,-0.275,-0.2642,-0.2604,-0.2447,-0.2424,-0.2703,-0.27,-0.2741,-0.2741,-0.2742,-0.2742,0,-0.2126,-0.221,-0.227,-0.2385,-0.2414,-0.2441,-0.2534,-0.2564,-0.2642,-0.2668,-0.268,-0.2748,-0.2726,-0.2729,-0.2699,-0.2659,-0.2608,-0.2561,-0.2365,-0.2306,-0.2476,-0.2477,-0.2414,-0.241,-0.2407,-0.2404,-0.2402,0,-0.2098,-0.2124,-0.2223,-0.2245,-0.2293,-0.2352,-0.2388,-0.25,-0.2534,-0.2627,-0.2627,-0.2636,-0.2606,-0.2531,-0.2471,-0.2393,-0.2496,-0.2172,-0.2167,-0.2476,-0.2445,-0.2451,-0.2457,-0.1927,-0.1921,-0.1916,-0.1912,0,-0.2018,-0.2047,-0.209,-0.2132,-0.2174,-0.2213,-0.2282,-0.2297,-0.2422,-0.2444,-0.2463,-0.2446,-0.2397,-0.223,-0.2146,-0.2091,-0.2176,-0.2067,-0.2426,-0.2051,-0.2013,-0.1985,-0.2006,-0.1868,-0.1873,-0.1876,-0.1878,-0.188,-0.1924,-0.1921,-0.1967,-0.1991,-0.2037,-0.205,-0.2028,-0.2111,-0.212,-0.2128,-0.2225,-0.2139,-0.2131,-0.1895,-0.1794,-0.1721,-0.1882,-0.1801,-0.1818,-0.1839,-0.1807,-0.1767,-0.1568,-0.157,-0.1573,-0.1575,-0.1576,0,-0.1794,-0.1806,-0.1825,-0.1845,-0.1829,-0.19,-0.193,-0.1884,-0.1839,-0.1881,-0.1855,-0.1663,-0.154,-0.1543,-0.1355,-0.1317,-0.1321,-0.1263,-0.127,-0.1314,-0.1353,-0.1299,-0.0923,-0.0921,-0.0919,-0.0918,0,0,-0.1725,-0.1688,-0.1697,-0.1617,-0.1631,-0.1548,-0.1524,-0.1486,-0.1478,-0.1396,-0.1354,-0.1453,-0.1491,-0.1212,-0.1143,-0.0998,-0.1146,-0.0943,-0.1467,-0.1519,-0.1555,-0.1661,-0.1625,0,0,0,0,0]},{"header":{"parameterUnit":"m.s-1","parameterCategory":2,"la1":30.2991,"la2":30.254,"lo1":-89.0895,"lo2":-89.0444,"dy":0.0017,"dx":0.0017,"nx":28,"ny":28,"refTime":"2024-04-14T09:00:00:Z","depth":"2","parameterNumber":3,"parameterNumberName":"V-component_of_CURRENTS"},"data":[0,0,0,0,0,0,0,0,0,0,0,0,0,0,0,0,0,0,0,0,0,0,0,0,0,0,0,0,0,0,0,0,0,0,0,0,0,0,0,0,0,0,0,0,0,0,0,0,0,0,0,0,0,0,0,0,0,0,-0.0127,-0.0126,0,-0.0053,-0.0052,-0.0051,0.0004,0.0004,0.0005,0.0005,0.0124,0.0127,0.0129,0,0,0,0,0,0,0,0,0,0,0,0,0,-0.0171,-0.0171,-0.0127,-0.0126,-0.0125,-0.0053,-0.0052,-0.0051,0.0004,0.0004,0.0005,0.0006,0.0123,0.0126,0.0129,0,0,0,0,0,0,0,0,0,0,0,0,0,-0.013,-0.0171,-0.0127,-0.0089,-0.0084,-0.0053,-0.0052,-0.0051,0.0004,0.0004,0.0005,0.0006,0.0122,0.0126,0.013,0.0138,0,0,0.0142,0.0144,0,0,0,0,0,0,0,0,-0.0133,-0.0129,-0.0095,-0.0091,-0.0086,-0.0032,-0.0024,0.0015,0.0003,-0.003,0.0005,0.0006,0.0076,0.0083,0.0094,0.0144,0.0149,0.0142,0.0145,0.0146,0.0148,0,0,0,0,0,0,0,-0.0136,-0.0132,-0.0098,-0.0094,-0.0089,-0.0058,-0.0052,-0.0016,0.0017,-0.0027,-0.0023,-0.0014,0.0078,0.009,0.0097,0.0151,0.0142,0.0146,0.0148,0.015,0.0228,0.0227,0,0,0,0,0,0,-0.0147,-0.0135,-0.01,-0.0096,-0.0107,-0.0058,-0.0051,-0.0051,0.0016,0.0027,-0.0015,-0.0012,0.0083,0.0093,0.0102,0.0115,0.0146,0.015,0.0152,0.0228,0.0228,0.0227,0,0,0,0,0,0,-0.0149,-0.0145,-0.0103,-0.0112,-0.0105,-0.0058,-0.0058,-0.005,-0.0037,0.0025,0.0037,-0.001,0.0084,0.0096,0.013,0.012,0.0152,0.0156,0.0228,0.0228,0.0227,0.0143,0,0,0,0,0,0,-0.0151,-0.0147,-0.0155,-0.0114,-0.0105,-0.0096,-0.0059,-0.0049,-0.0032,-0.0027,0.0033,0.0045,0.0085,0.0124,0.0134,0.0127,0.0159,0.0229,0.0228,0.0228,0.0146,0.0139,0.0134,0,0,0,0,0,-0.0153,-0.0172,-0.0156,-0.0151,-0.0116,-0.0097,-0.009,-0.0053,-0.0033,-0.0037,0.0009,0.0043,0.0127,0.0126,0.0139,0.0132,0.0229,0.0228,0.0228,0.0149,0.0141,0.0134,0,0,0,0,0,0,-0.0194,-0.0166,-0.0148,-0.0157,-0.0132,-0.0088,-0.0089,-0.006,-0.0028,-0.0023,0.0039,0.0053,0.0078,0.0117,0.0115,0.0154,0.0184,0.0186,0.012,0.0113,0.0107,0.0097,0.0162,0,0,0,0,0,-0.0207,-0.0215,-0.0178,-0.0185,-0.0177,-0.0133,-0.0121,-0.0097,-0.006,-0.0046,-0.0001,0.0046,0.0084,0.0107,0.0144,0.0165,0.021,0.017,0.0164,0.0158,0.0158,0.0218,0.0218,0.0225,0.0225,0.0225,0,0,-0.0223,-0.021,-0.0213,-0.0194,-0.0172,-0.0176,-0.0125,-0.0115,-0.011,-0.0038,-0.0021,0.0024,0.0084,0.0106,0.0122,0.0139,0.0178,0.0157,0.0152,0.0156,0.0218,0.0217,0.0216,0.0224,0.0224,0.0225,0,0,-0.027,-0.0251,-0.0276,-0.0263,-0.0239,-0.0211,-0.0212,-0.0172,-0.0146,-0.0124,-0.007,-0.0029,0.0024,0.0068,0.0097,0.0081,0.0141,0.0091,0.0056,0.0113,0.0113,0.0114,0.0158,0.0163,0.0091,0.0091,0.0091,0,-0.029,-0.0317,-0.028,-0.0301,-0.0296,-0.0233,-0.0256,-0.0223,-0.0175,-0.0151,-0.0131,-0.004,0.0007,0.0049,0.0043,0.0068,0.0106,0.0076,0.0105,0.0107,0.0109,0.0154,0.0161,0.0087,0.0087,0.0088,0.0088,0,-0.0354,-0.0375,-0.0389,-0.0395,-0.0383,-0.0392,-0.0342,-0.0319,-0.0277,-0.0236,-0.0185,-0.0116,-0.0059,-0.004,-0.0002,0.0034,0.0058,0.0086,0.012,0.0103,0.0152,0.016,0.0081,0.0082,0.0084,0.0085,0,0,-0.0398,-0.0431,-0.0434,-0.0456,-0.0434,-0.0431,-0.0415,-0.0379,-0.0358,-0.0301,-0.027,-0.02,-0.015,-0.0113,-0.0055,-0.0002,0.004,0.0041,0.0046,0.0078,0.0159,0.0201,0.0215,0.0074,0.0075,0.0076,0.0183,0,-0.0458,-0.0532,-0.0518,-0.0567,-0.0599,-0.0536,-0.0523,-0.0476,-0.0418,-0.0371,-0.0279,-0.0233,-0.018,-0.0152,-0.0092,0.0012,0.0061,0.0008,0.0178,0.0183,0.0217,0.0226,0.02,0.0296,0.0192,0.0194,0.0195,0,-0.0527,-0.0566,-0.0641,-0.0657,-0.0659,-0.0668,-0.0624,-0.0605,-0.0513,-0.0463,-0.0391,-0.0315,-0.0228,-0.0182,-0.0018,-0.0054,0.004,0.0121,0.0128,0.0205,0.0241,0.0301,0.0317,0.021,0.0209,0.0208,0.0207,0,-0.0592,-0.0645,-0.071,-0.0719,-0.0726,-0.0726,-0.071,-0.0637,-0.061,-0.0521,-0.0486,-0.037,-0.0307,-0.0173,-0.0007,-0.001,0.0178,0.0197,0.0322,0.0326,0.0358,0.0362,0.0308,0.0308,0.0308,0.0307,0.0307,0,-0.0671,-0.0717,-0.0748,-0.0786,-0.0828,-0.0799,-0.0808,-0.0762,-0.0694,-0.0662,-0.0545,-0.0485,-0.03,-0.0166,-0.0021,0.0181,0.017,0.0322,0.0362,0.0326,0.0327,0.0298,0.0295,0.0312,0.0311,0.031,0.0309,0,-0.0746,-0.0772,-0.0844,-0.0868,-0.0874,-0.0903,-0.0884,-0.0877,-0.0802,-0.0756,-0.073,-0.0567,-0.0381,-0.0189,0.0038,0.0164,0.035,0.042,0.036,0.0391,0.0459,0.0451,0.0572,0.0574,0.0576,0.0578,0.0579,0,-0.0795,-0.0849,-0.091,-0.0948,-0.0966,-0.0994,-0.1002,-0.0943,-0.0923,-0.0796,-0.0773,-0.0591,-0.0438,-0.0091,0.0157,0.042,0.0415,0.054,0.0536,0.0463,0.0489,0.0477,0.0467,0.0538,0.0539,0.054,0.0541,0,-0.0879,-0.0902,-0.0959,-0.1039,-0.1077,-0.1107,-0.1109,-0.1106,-0.1019,-0.0942,-0.0803,-0.0671,-0.0336,-0.0037,0.0292,0.0439,0.0497,0.0567,0.0523,0.0474,0.044,0.0463,0.0452,0.0548,0.0548,0.0547,0.0547,0.0546,-0.0922,-0.0983,-0.1054,-0.1124,-0.1168,-0.1199,-0.1206,-0.1166,-0.1111,-0.0957,-0.0833,-0.0581,-0.0314,0.0181,0.0404,0.0607,0.0602,0.0658,0.0651,0.0645,0.062,0.0592,0.0724,0.0724,0.0724,0.0724,0.0725,0,-0.0971,-0.1044,-0.1125,-0.1204,-0.1253,-0.1255,-0.1255,-0.1215,-0.1126,-0.0941,-0.0758,-0.0423,-0.0084,0.0191,0.0527,0.072,0.0689,0.0743,0.0665,0.0657,0.065,0.0622,0.0728,0.0729,0.073,0.073,0,0,-0.1003,-0.1103,-0.1151,-0.1251,-0.1296,-0.1322,-0.1313,-0.1217,-0.1072,-0.0861,-0.0646,-0.0379,-0.005,0.0194,0.0425,0.0591,0.0572,0.06,0.0578,0.0451,0.0442,0.0584,0.053,0,0,0,0,0]}],[{"header":{"parameterUnit":"m.s-1","parameterCategory":2,"la1":30.2991,"la2":30.254,"lo1":-89.0895,"lo2":-89.0444,"dy":0.0017,"dx":0.0017,"nx":28,"ny":28,"refTime":"2024-04-14T09:00:00:Z","depth":"4","parameterNumber":2,"parameterNumberName":"U-component_of_CURRENTS"},"data":[0,0,0,0,0,0,0,0,0,0,0,0,0,0,0,0,0,0,0,0,0,0,0,0,0,0,0,0,0,0,0,0,0,0,0,0,0,0,0,0,0,0,0,0,0,0,0,0,0,0,0,0,0,0,0,0,0,0,-0.1617,-0.1617,0,-0.1637,-0.1637,-0.1637,-0.1649,-0.1649,-0.1649,-0.1649,-0.1714,-0.1715,-0.1717,0,0,0,0,0,0,0,0,0,0,0,0,0,-0.1535,-0.1537,-0.1617,-0.1617,-0.1618,-0.1637,-0.1637,-0.1637,-0.1649,-0.1649,-0.1649,-0.1649,-0.1713,-0.1715,-0.1717,0,0,0,0,0,0,0,0,0,0,0,0,0,-0.1564,-0.1538,-0.1617,-0.1626,-0.1628,-0.1637,-0.1637,-0.1637,-0.1649,-0.1649,-0.1649,-0.1649,-0.1712,-0.1715,-0.1717,-0.1728,0,0,-0.1724,-0.1725,0,0,0,0,0,0,0,0,-0.1562,-0.1567,-0.1625,-0.1626,-0.1627,-0.1641,-0.1632,-0.167,-0.1649,-0.164,-0.1649,-0.165,-0.1694,-0.1698,-0.1699,-0.1731,-0.1734,-0.1725,-0.1726,-0.1727,-0.1728,0,0,0,0,0,0,0,-0.156,-0.1566,-0.1624,-0.1625,-0.1627,-0.1611,-0.1616,-0.1639,-0.1666,-0.1641,-0.1642,-0.1645,-0.1695,-0.1697,-0.1701,-0.1735,-0.1725,-0.1727,-0.1728,-0.1729,-0.1862,-0.1864,0,0,0,0,0,0,-0.1563,-0.1564,-0.1623,-0.1625,-0.1595,-0.1613,-0.1618,-0.1636,-0.1665,-0.1669,-0.1645,-0.1646,-0.1693,-0.1698,-0.1703,-0.1794,-0.1727,-0.1729,-0.1731,-0.186,-0.1862,-0.1865,0,0,0,0,0,0,-0.1561,-0.1568,-0.1623,-0.1594,-0.16,-0.1615,-0.1634,-0.1636,-0.1664,-0.1668,-0.1673,-0.1674,-0.1693,-0.17,-0.1754,-0.1794,-0.173,-0.1732,-0.1857,-0.1861,-0.1864,-0.1928,0,0,0,0,0,0,-0.1559,-0.1568,-0.1593,-0.1595,-0.1602,-0.1651,-0.1634,-0.1636,-0.1665,-0.1667,-0.1694,-0.1698,-0.1694,-0.1751,-0.1756,-0.1796,-0.1734,-0.1855,-0.1859,-0.1863,-0.1923,-0.1933,-0.1941,0,0,0,0,0,-0.1556,-0.1582,-0.1594,-0.1602,-0.1633,-0.1652,-0.1655,-0.1663,-0.1666,-0.1688,-0.171,-0.1699,-0.178,-0.1754,-0.1761,-0.1802,-0.1853,-0.1858,-0.1862,-0.1919,-0.1931,-0.1941,0,0,0,0,0,0,-0.1551,-0.1586,-0.1599,-0.1634,-0.1654,-0.1655,-0.1675,-0.1682,-0.1714,-0.1724,-0.1726,-0.1733,-0.1793,-0.1793,-0.1765,-0.1853,-0.1815,-0.1821,-0.1856,-0.1867,-0.1876,-0.1883,-0.1736,0,0,0,0,0,-0.1564,-0.1602,-0.1622,-0.1653,-0.1667,-0.1679,-0.1692,-0.1701,-0.1721,-0.1736,-0.1757,-0.1783,-0.1813,-0.1837,-0.1859,-0.191,-0.1896,-0.1942,-0.1951,-0.1959,-0.197,-0.1991,-0.2002,-0.188,-0.188,-0.188,0,0,-0.1568,-0.1594,-0.1615,-0.1656,-0.1672,-0.1702,-0.1688,-0.1719,-0.1754,-0.1739,-0.1804,-0.1817,-0.1834,-0.1888,-0.1916,-0.1897,-0.1983,-0.1965,-0.1971,-0.1979,-0.1997,-0.2008,-0.2019,-0.1883,-0.1883,-0.1882,0,0,-0.1582,-0.1624,-0.1655,-0.1683,-0.172,-0.1733,-0.1752,-0.1778,-0.1804,-0.186,-0.1859,-0.1903,-0.1949,-0.1969,-0.1983,-0.206,-0.2028,-0.2068,-0.2124,-0.2144,-0.2154,-0.2162,-0.214,-0.2146,-0.2076,-0.2076,-0.2076,0,-0.1585,-0.163,-0.1664,-0.1699,-0.1728,-0.1754,-0.1788,-0.1823,-0.1866,-0.1896,-0.1894,-0.1975,-0.1989,-0.2053,-0.2079,-0.2081,-0.2069,-0.2078,-0.2154,-0.2162,-0.217,-0.2145,-0.2151,-0.2079,-0.2079,-0.2079,-0.2078,0,-0.1613,-0.166,-0.1681,-0.1745,-0.1783,-0.1817,-0.1867,-0.1918,-0.1955,-0.198,-0.2059,-0.2081,-0.2125,-0.2141,-0.2135,-0.2203,-0.2168,-0.2158,-0.2121,-0.2186,-0.2155,-0.216,-0.2085,-0.2083,-0.2082,-0.2081,0,0,-0.1584,-0.1682,-0.1693,-0.1734,-0.1812,-0.1842,-0.1923,-0.1991,-0.2044,-0.21,-0.2159,-0.2224,-0.2233,-0.225,-0.2253,-0.2279,-0.2315,-0.2247,-0.2247,-0.2216,-0.2329,-0.2154,-0.2141,-0.2315,-0.2317,-0.2319,-0.2278,0,-0.1593,-0.1664,-0.1718,-0.1797,-0.1836,-0.1907,-0.1978,-0.2051,-0.2109,-0.2175,-0.2222,-0.2275,-0.2276,-0.2296,-0.2329,-0.2318,-0.2334,-0.2325,-0.228,-0.2278,-0.2107,-0.2144,-0.2324,-0.2281,-0.2282,-0.2283,-0.2284,0,-0.1596,-0.1647,-0.172,-0.1831,-0.1857,-0.1917,-0.2036,-0.21,-0.2201,-0.2245,-0.2314,-0.2336,-0.2398,-0.2378,-0.2411,-0.2403,-0.2379,-0.2364,-0.2362,-0.2181,-0.2112,-0.221,-0.2292,-0.2291,-0.229,-0.229,-0.2289,0,-0.1546,-0.1653,-0.1715,-0.1751,-0.1874,-0.1937,-0.2011,-0.2122,-0.2177,-0.2286,-0.2318,-0.2398,-0.242,-0.2438,-0.2415,-0.2418,-0.2417,-0.2411,-0.2231,-0.2216,-0.2357,-0.2349,-0.2432,-0.2432,-0.2432,-0.2432,-0.2432,0,-0.1523,-0.1578,-0.1704,-0.1736,-0.1818,-0.1921,-0.2014,-0.2099,-0.2204,-0.2253,-0.2345,-0.2371,-0.2437,-0.2439,-0.2427,-0.2326,-0.2426,-0.2239,-0.2201,-0.2382,-0.2377,-0.2358,-0.2351,-0.243,-0.2431,-0.2431,-0.2431,0,-0.1453,-0.1537,-0.161,-0.1747,-0.1793,-0.1853,-0.1997,-0.2056,-0.2168,-0.223,-0.2261,-0.235,-0.2343,-0.2368,-0.237,-0.2301,-0.225,-0.2189,-0.2357,-0.2329,-0.2033,-0.2029,-0.1985,-0.1979,-0.1973,-0.1969,-0.1965,0,-0.142,-0.1451,-0.159,-0.1635,-0.1701,-0.1806,-0.1872,-0.2015,-0.2066,-0.2191,-0.2198,-0.2235,-0.227,-0.2118,-0.2179,-0.2121,-0.21,-0.2056,-0.2075,-0.2023,-0.1991,-0.1996,-0.2,-0.1957,-0.1955,-0.1954,-0.1952,0,-0.1342,-0.1403,-0.1461,-0.1545,-0.1625,-0.1699,-0.1804,-0.1822,-0.1968,-0.2085,-0.206,-0.204,-0.2014,-0.1998,-0.195,-0.1925,-0.2083,-0.2,-0.2011,-0.2028,-0.1988,-0.1962,-0.1972,-0.1934,-0.1936,-0.1938,-0.1939,0,-0.1277,-0.1295,-0.1374,-0.1435,-0.1527,-0.1559,-0.1635,-0.1685,-0.1741,-0.1884,-0.1868,-0.1912,-0.1988,-0.1893,-0.1867,-0.1806,-0.1786,-0.1735,-0.1761,-0.1782,-0.1735,-0.1655,-0.1462,0,0,0,0,0,-0.1198,-0.1207,-0.1259,-0.1315,-0.1402,-0.1445,-0.1573,-0.1652,-0.1788,-0.1715,-0.1784,-0.1753,-0.1694,-0.1725,-0.1617,-0.178,-0.1799,-0.1649,-0.1757,-0.183,-0.1851,-0.1815,0,0,0,0,0,0,-0.1144,-0.1188,-0.1209,-0.1195,-0.1209,-0.1279,-0.1349,-0.1447,-0.142,-0.1559,-0.153,-0.1629,-0.1595,-0.1707,-0.157,-0.1578,-0.1607,-0.1688,-0.1683,-0.1817,-0.1837,-0.1854,-0.1824,0,0,0,0,0]},{"header":{"parameterUnit":"m.s-1","parameterCategory":2,"la1":30.2991,"la2":30.254,"lo1":-89.0895,"lo2":-89.0444,"dy":0.0017,"dx":0.0017,"nx":28,"ny":28,"refTime":"2024-04-14T09:00:00:Z","depth":"4","parameterNumber":3,"parameterNumberName":"V-component_of_CURRENTS"},"data":[0,0,0,0,0,0,0,0,0,0,0,0,0,0,0,0,0,0,0,0,0,0,0,0,0,0,0,0,0,0,0,0,0,0,0,0,0,0,0,0,0,0,0,0,0,0,0,0,0,0,0,0,0,0,0,0,0,0,-0.0104,-0.0103,0,-0.0058,-0.0057,-0.0057,-0.002,-0.0019,-0.0019,-0.0018,0.0058,0.0059,0.0061,0,0,0,0,0,0,0,0,0,0,0,0,0,-0.0123,-0.0123,-0.0104,-0.0103,-0.0102,-0.0058,-0.0057,-0.0057,-0.002,-0.0019,-0.0019,-0.0018,0.0057,0.0059,0.0061,0,0,0,0,0,0,0,0,0,0,0,0,0,-0.01,-0.0123,-0.0104,-0.0078,-0.0076,-0.0058,-0.0057,-0.0056,-0.002,-0.0019,-0.0019,-0.0018,0.0056,0.0059,0.0061,0.0065,0,0,0.0069,0.007,0,0,0,0,0,0,0,0,-0.0101,-0.0099,-0.0083,-0.008,-0.0077,-0.0044,-0.0036,-0.0014,-0.002,-0.0041,-0.0018,-0.0018,0.0026,0.0031,0.0038,0.0068,0.0072,0.0069,0.0071,0.0072,0.0072,0,0,0,0,0,0,0,-0.0103,-0.0101,-0.0086,-0.0082,-0.0079,-0.0057,-0.0053,-0.0032,-0.0011,-0.0039,-0.0036,-0.0031,0.0028,0.0035,0.004,0.0073,0.0069,0.0071,0.0073,0.0074,0.0119,0.0118,0,0,0,0,0,0,-0.0111,-0.0102,-0.0087,-0.0084,-0.0088,-0.0057,-0.0053,-0.0055,-0.0012,-0.0005,-0.0032,-0.003,0.0031,0.0037,0.0043,0.0052,0.0072,0.0074,0.0075,0.0119,0.0118,0.0118,0,0,0,0,0,0,-0.0111,-0.011,-0.0089,-0.0092,-0.0087,-0.0058,-0.006,-0.0055,-0.0046,-0.0006,0.0001,-0.0029,0.0032,0.0039,0.006,0.0055,0.0075,0.0077,0.0119,0.0119,0.0118,0.0068,0,0,0,0,0,0,-0.0112,-0.0111,-0.0118,-0.0093,-0.0087,-0.0086,-0.006,-0.0054,-0.0044,-0.004,-0.0001,0.0006,0.0033,0.0056,0.0063,0.0059,0.0079,0.012,0.0119,0.0118,0.007,0.0066,0.0062,0,0,0,0,0,-0.0113,-0.0128,-0.0119,-0.0117,-0.0098,-0.0086,-0.0082,-0.0059,-0.0044,-0.0047,-0.0018,0.0005,0.0057,0.0058,0.0066,0.0062,0.012,0.0119,0.0118,0.0072,0.0067,0.0063,0,0,0,0,0,0,-0.0139,-0.0125,-0.0114,-0.0124,-0.0109,-0.008,-0.0083,-0.0063,-0.0043,-0.0039,0.0002,0.0011,0.0026,0.005,0.005,0.0073,0.0092,0.0093,0.0054,0.005,0.0046,0.0038,0.0081,0,0,0,0,0,-0.0149,-0.0157,-0.0135,-0.0143,-0.0139,-0.0111,-0.0104,-0.0088,-0.0065,-0.0055,-0.0026,0.0004,0.0028,0.0044,0.0065,0.0079,0.0118,0.0082,0.0078,0.0075,0.0074,0.0135,0.0137,0.0116,0.0116,0.0116,0,0,-0.0161,-0.0154,-0.0158,-0.0149,-0.0137,-0.0142,-0.0106,-0.0101,-0.0099,-0.005,-0.0042,-0.0011,0.0027,0.0041,0.0051,0.0063,0.0099,0.0074,0.0071,0.0071,0.0135,0.0137,0.0139,0.0115,0.0116,0.0116,0,0,-0.0193,-0.0184,-0.0204,-0.0197,-0.0184,-0.0167,-0.0168,-0.0143,-0.0126,-0.0114,-0.0077,-0.0046,-0.0017,0.0017,0.0037,0.0026,0.0073,0.0029,0.0008,0.0068,0.0071,0.0073,0.0116,0.0123,0.0031,0.0031,0.0031,0,-0.0207,-0.0229,-0.0206,-0.0223,-0.0222,-0.0183,-0.0201,-0.018,-0.0149,-0.0132,-0.012,-0.0058,-0.0026,0.0009,0.0003,0.0019,0.0054,0.0022,0.0064,0.0067,0.0071,0.0114,0.0123,0.0029,0.0029,0.0029,0.0029,0,-0.0252,-0.027,-0.0281,-0.029,-0.0285,-0.0295,-0.0264,-0.025,-0.0224,-0.0195,-0.0157,-0.0107,-0.0066,-0.0052,-0.0029,0.001,0.0026,0.0049,0.0075,0.007,0.0116,0.0126,0.0025,0.0026,0.0027,0.0027,0,0,-0.028,-0.031,-0.0314,-0.0333,-0.0323,-0.0325,-0.0317,-0.0294,-0.0281,-0.0239,-0.0214,-0.0164,-0.0124,-0.0099,-0.0056,-0.0004,0.0049,0.0027,0.0031,0.0068,0.0171,0.016,0.017,0.0081,0.0082,0.0084,0.0189,0,-0.0322,-0.0378,-0.0372,-0.0415,-0.044,-0.0402,-0.0397,-0.0365,-0.0326,-0.029,-0.0216,-0.0183,-0.0145,-0.0124,-0.0065,0.002,0.0073,0.0018,0.0171,0.0176,0.0166,0.018,0.0089,0.0197,0.0199,0.02,0.0202,0,-0.0369,-0.04,-0.0459,-0.0481,-0.0485,-0.0499,-0.0475,-0.0466,-0.0396,-0.0359,-0.0299,-0.024,-0.0161,-0.0129,0.0023,-0.0015,0.0069,0.0139,0.0145,0.016,0.0183,0.0207,0.022,0.0218,0.0217,0.0216,0.0215,0,-0.0411,-0.0458,-0.0511,-0.0521,-0.0536,-0.0544,-0.0541,-0.049,-0.0474,-0.0403,-0.0374,-0.0271,-0.0218,-0.0096,0.0041,0.0037,0.0211,0.0228,0.0299,0.0299,0.0299,0.0296,0.0338,0.0338,0.0337,0.0337,0.0337,0,-0.0461,-0.0502,-0.0539,-0.057,-0.0614,-0.0599,-0.0618,-0.0588,-0.0538,-0.0512,-0.0419,-0.0364,-0.0205,-0.0087,0.0036,0.0194,0.0213,0.0298,0.033,0.0273,0.0266,0.0306,0.0301,0.0341,0.034,0.034,0.0339,0,-0.0505,-0.0533,-0.0596,-0.0631,-0.0645,-0.0676,-0.0684,-0.0682,-0.0627,-0.0587,-0.0567,-0.0428,-0.0269,-0.0108,0.0095,0.0182,0.0335,0.0386,0.0303,0.0327,0.0383,0.0374,0.0477,0.0478,0.0478,0.0479,0.0479,0,-0.0533,-0.0576,-0.0648,-0.0689,-0.0713,-0.0752,-0.0769,-0.0735,-0.0719,-0.0616,-0.059,-0.0441,-0.0331,-0.0049,0.0109,0.034,0.037,0.0435,0.0419,0.038,0.04,0.039,0.0381,0.048,0.048,0.048,0.048,0,-0.0582,-0.0614,-0.0665,-0.0751,-0.0797,-0.0836,-0.0851,-0.0841,-0.0777,-0.0732,-0.0581,-0.0425,-0.0247,-0.0039,0.0133,0.0298,0.0385,0.0441,0.0441,0.0426,0.0384,0.0402,0.0392,0.0482,0.0482,0.0482,0.0482,0,-0.0608,-0.066,-0.0732,-0.08,-0.0864,-0.0892,-0.0897,-0.0847,-0.0815,-0.0679,-0.0632,-0.0421,-0.0298,-0.0059,0.0104,0.0258,0.0297,0.0336,0.0342,0.0342,0.0265,0.0189,0.026,0,0,0,0,0,-0.0625,-0.0692,-0.077,-0.0844,-0.0902,-0.0931,-0.0934,-0.0915,-0.0849,-0.0743,-0.0677,-0.0497,-0.0225,-0.0105,0.005,0.0087,0.0294,0.027,0.0334,0.0492,0.049,0.0421,0,0,0,0,0,0,-0.0642,-0.073,-0.0776,-0.0857,-0.0907,-0.0959,-0.096,-0.0916,-0.0836,-0.0745,-0.0594,-0.0482,-0.022,-0.0315,0.0046,0.0093,0.015,0.0407,0.041,0.0493,0.0491,0.0489,0.0418,0,0,0,0,0]}]]